Home > Time Zones > World Clock > Weather > Iran > Yazd > Past weeks

Flag for Iran Weather past 2 weeks in Yazd, Iran

Now
79 °F

Clear.


Feels Like: 77 °F
Forecast: 62 / 96 °F
Wind: 9 mph from Southwest

Location: Yazd Airport

Current Time: Aug 23, 2014 at 2:18:46 AM

Latest Report: Aug 23, 2014 at 1:30 AM


Visibility: 10 mi

Pressure: 30.01 "Hg

Humidity: 12%

Dew point: 23 °F

Location of YazdLocation

Historic Weather in Yazd — Graph

°F

Yazd temperature yesterday

Maximum temperature yesterday: 97 °F (at 2:30 PM)
Minimum temperature yesterday: 73 °F (at 6:30 AM)
Average temperature yesterday: 87 °F

Past Weeks' High & Low Weather Summary

 TemperatureHumidityPressure
High108 °F (Aug 8, 2:30 PM)42% (Aug 15, 7:30 AM)30.09 "Hg (Aug 15, 7:30 AM)
Low70 °F (Aug 18, 5:30 AM)3% (Aug 8, 1:00 PM)29.74 "Hg (Aug 8, 12:30 AM)
Average91 °F9%29.94 "Hg
* Reported Aug 8 12:30 AM — Aug 23 12:30 AM, Yazd, Weather by CustomWeather, © 2014

Note: Actual official high and low records may vary slightly from our data, if they occured in-between our weather recording intervals... More about our weather records

Advertising

Yazd weather history for previous 24 hours

 ConditionsComfort  
Time TempWeatherWind HumidityBarometerVisibility
12:30 AM
Aug 23
81 °FClear.9 mph11%30.01 "Hg10 mi
12:00 AM82 °FClear.9 mph9%30.01 "Hg10 mi
11:30 PM
Aug 22
82 °FClear.7 mph9%29.98 "Hg10 mi
11:00 PM84 °FClear.12 mph9%29.98 "Hg10 mi
10:30 PM84 °FClear.7 mph10%29.98 "Hg10 mi
10:00 PM86 °FClear.7 mph8%29.98 "Hg10 mi
9:30 PM88 °FClear.No wind8%29.95 "Hg10 mi
9:00 PM88 °FClear.5 mph9%29.95 "Hg10 mi
8:30 PM90 °FSunny.7 mph7%29.95 "Hg10 mi
8:00 PM90 °FSunny.7 mph7%29.92 "Hg10 mi
7:30 PM93 °FSunny.12 mph7%29.92 "Hg10 mi
7:00 PM95 °FPassing clouds.12 mph7%29.92 "HgN/A
6:30 PM95 °FSunny.12 mph7%29.92 "Hg10 mi
5:30 PM97 °FPassing clouds.12 mph6%29.92 "HgN/A
4:30 PM97 °FPassing clouds.9 mph6%29.92 "HgN/A
3:30 PM97 °FPassing clouds.5 mph6%29.92 "HgN/A
2:30 PM97 °FPassing clouds.5 mph5%29.95 "HgN/A
1:30 PM95 °FSunny.5 mph6%29.98 "Hg10 mi
1:00 PM93 °FSunny.7 mph7%29.98 "Hg10 mi
12:30 PM93 °FSunny.5 mph7%29.98 "Hg10 mi
12:00 PM93 °FSunny.7 mph7%29.98 "Hg10 mi
11:30 AM91 °FSunny.7 mph7%30.01 "Hg10 mi
11:00 AM90 °FSunny.7 mph7%30.01 "Hg10 mi
10:30 AM88 °FSunny.7 mph7%30.01 "Hg10 mi
10:00 AM86 °FSunny.5 mph8%30.01 "Hg10 mi
9:30 AM84 °FSunny.5 mph9%30.01 "Hg10 mi
9:00 AM82 °FSunny.5 mph10%30.01 "Hg10 mi
8:30 AM81 °FSunny.No wind10%30.01 "Hg10 mi
8:00 AM79 °FSunny.2 mph12%30.01 "Hg10 mi
7:30 AM77 °FClear.5 mph13%30.01 "Hg10 mi
6:30 AM73 °FClear.2 mph14%29.98 "Hg10 mi
5:30 AM75 °FClear.2 mph13%29.98 "Hg10 mi
4:30 AM79 °FClear.7 mph12%29.95 "Hg10 mi
3:20 AM79 °FClear.5 mph12%29.95 "Hg10 mi
2:30 AM81 °FClear.9 mph12%29.95 "Hg10 mi
Weather by CustomWeather, © 2014

See weather overviewHow to use our weather pages